Weather History for Louisville Bowman, KY

Change the Weather History Date:

Thursday, March 20, 2014

  Actual Average Record
Temperature  
Mean Temperature 45 °F 48 °F  
Max Temperature 58 °F 58 °F 86 °F (2012)
Min Temperature 32 °F 39 °F 21 °F (1965)
Degree Days  
Heating Degree Days 20 17  
Month to date heating degree days 462 397  
Since 1 July heating degree days 4271 3758  
Cooling Degree Days 0 0  
Month to date cooling degree days 0 0  
Year to date cooling degree days 0 0  
Moisture  
Dew Point 28 °F    
Average Humidity 54    
Maximum Humidity 75    
Minimum Humidity 32    
Precipitation  
Precipitation 0.00 in 0.14 in 1.55 in (1955)
Month to date precipitation 1.08 2.54  
Year to date precipitation 6.85 9.10  
Sea Level Pressure  
Sea Level Pressure 30.11 in    
Wind  
Wind Speed 6 mph (WSW)    
Max Wind Speed 18 mph    
Max Gust Speed 24 mph    
Visibility 10 miles    
Events      
T = Trace of Precipitation, MM = Missing Value Source: NWS Daily Summary

Daily Weather History Graph

Daily Weather History Graph

Search for Another Location

Airport:

Trip Planner

Search our weather history database for the weather conditions in past years. The results will help you decide how hot, cold, wet, or windy it might be!

Date:

Astronomy

Mar. 20, 2014 Rise Set
Actual Time 7:46 AM EDT 7:54 PM EDT
Civil Twilight 7:19 AM EDT 8:20 PM EDT
Nautical Twilight 6:49 AM EDT 8:51 PM EDT
Astronomical Twilight 6:17 AM EDT 9:23 PM EDT
Moon No Moon Rise 9:55 AM EDT (3/20)
Length of Visible Light 13h 01m
Length of Day
12h 08m
Waning Gibbous, 84% of the Moon is Illuminated
Mar 20
Waning Gibbous
Mar 23
Last Quarter
Mar 30
New
Apr 7
First Quarter
Apr 15
Full

Hourly Weather History & Observations

Time (EDT) Temp. Windchill Dew Point Humidity Pressure Visibility Wind Dir Wind Speed Gust Speed Precip Events Conditions
12:53 AM 44.1 °F 37.4 °F 30.0 °F 58% 30.10 in 10.0 mi WNW 13.8 mph - N/A   Overcast
1:53 AM 42.1 °F 36.6 °F 28.0 °F 58% 30.11 in 10.0 mi WNW 9.2 mph - N/A   Mostly Cloudy
2:53 AM 39.0 °F 32.8 °F 28.9 °F 67% 30.11 in 10.0 mi West 9.2 mph - N/A   Clear
3:53 AM 37.9 °F 31.5 °F 28.0 °F 68% 30.11 in 10.0 mi West 9.2 mph - N/A   Clear
4:53 AM 35.1 °F 31.0 °F 27.0 °F 72% 30.12 in 10.0 mi West 4.6 mph - N/A   Clear
5:53 AM 34.0 °F 29.8 °F 27.0 °F 75% 30.13 in 10.0 mi West 4.6 mph - N/A   Clear
6:53 AM 33.1 °F 26.9 °F 26.1 °F 75% 30.15 in 10.0 mi West 6.9 mph - N/A   Clear
7:53 AM 32.0 °F - 25.0 °F 75% 30.17 in 8.0 mi Calm Calm - N/A   Clear
8:53 AM 35.1 °F 30.1 °F 28.0 °F 76% 30.18 in 8.0 mi WSW 5.8 mph - N/A   Clear
9:53 AM 37.9 °F 34.4 °F 28.0 °F 68% 30.19 in 10.0 mi West 4.6 mph - N/A   Clear
10:53 AM 41.0 °F 39.0 °F 28.0 °F 60% 30.19 in 10.0 mi Variable 3.5 mph - N/A   Clear
11:53 AM 45.0 °F - 28.9 °F 53% 30.18 in 10.0 mi Calm Calm - N/A   Clear
12:53 PM 46.9 °F - 28.9 °F 50% 30.16 in 10.0 mi Variable 5.8 mph - N/A   Clear
1:53 PM 51.1 °F - 28.9 °F 43% 30.14 in 10.0 mi SW 6.9 mph 17.3 mph N/A   Clear
2:53 PM 54.0 °F - 28.9 °F 38% 30.10 in 10.0 mi WSW 10.4 mph 17.3 mph N/A   Clear
3:53 PM 55.9 °F - 28.9 °F 36% 30.08 in 10.0 mi West 13.8 mph 20.7 mph N/A   Partly Cloudy
4:53 PM 57.0 °F - 28.0 °F 33% 30.07 in 10.0 mi SW 11.5 mph 19.6 mph N/A   Clear
5:53 PM 55.9 °F - 27.0 °F 33% 30.06 in 10.0 mi WSW 11.5 mph 20.7 mph N/A   Scattered Clouds
6:53 PM 55.9 °F - 28.0 °F 34% 30.06 in 10.0 mi WSW 11.5 mph - N/A   Partly Cloudy
7:53 PM 54.0 °F - 27.0 °F 35% 30.05 in 10.0 mi SW 4.6 mph - N/A   Clear
8:53 PM 53.1 °F - 27.0 °F 37% 30.04 in 10.0 mi South 3.5 mph - N/A   Clear
9:53 PM 50.0 °F - 28.0 °F 43% 30.06 in 10.0 mi Calm Calm - N/A   Clear
10:53 PM 48.9 °F - 28.0 °F 44% 30.05 in 10.0 mi Calm Calm - N/A   Clear
11:53 PM 46.9 °F - 28.0 °F 48% 30.06 in 10.0 mi South 3.5 mph - N/A   Clear